Theta_e
313 315 315 315 316 317 317 316 315 314 313 314 316 316 315 314 314 315 316 316 316 315 315 313 313 313 317 322 328 330 332 330 331 324 328 329 329 329 328 328 329 330 330 330
314 315 315 315 312 314 315 315 315 314 313 314 315 315 315 314 315 315 316 316 315 314 313 311 312 312 313 313 318 322 328 331 330 331 324 326 327 327 328 329 329 330 331 331
314 314 313 312 312 313 314 314 315 314 313 313 313 314 315 313 311 311 311 312 311 312 313 313 311 310 311 312 313 315 322 327 332 331 331 327 331 328 327 326 326 327 329 329
314 309 312 313 313 313 313 312 314 315 314 313 313 314 315 314 312 312 313 313 313 313 312 312 312 311 310 310 311 311 315 322 327 330 330 328 324 324 324 325 324 325 324 326
312 310 312 313 314 313 313 313 315 315 315 314 314 313 316 312 312 314 314 314 314 313 313 313 312 312 312 312 312 311 311 314 321 324 326 324 325 325 327 331 329 331 327 327
311 308 312 313 311 312 312 313 314 315 315 313 315 313 314 314 313 314 313 313 313 313 312 312 313 313 314 313 312 310 310 311 312 313 321 326 327 330 330 327 328 328 329 329
311 310 311 310 311 312 313 313 314 313 315 313 310 312 314 311 313 313 314 313 313 312 313 313 312 313 314 314 312 311 311 311 311 314 318 320 325 326 325 325 323 323 322 323
312 311 311 311 312 312 313 313 315 315 315 314 308 313 314 312 309 309 312 313 312 312 311 311 312 312 313 314 315 315 315 315 315 315 316 316 317 318 318 318 316 314 313 313
312 313 310 310 311 312 313 312 312 312 307 316 313 313 313 310 310 310 312 313 312 311 311 310 311 311 312 312 312 312 312 313 312 312 312 312 312 312 312 312 312 312 312 312
312 313 311 310 310 310 312 311 311 313 319 319 313 312 314 312 311 312 313 313 312 311 310 310 311 312 312 312 312 312 312 312 312 312 312 312 312 312 311 311 310 310 309 308
311 314 311 310 312 312 310 310 311 312 314 322 316 312 311 314 313 313 313 312 311 311 311 310 311 312 312 312 312 312 312 312 311 311 311 310 310 309 309 309 308 307 306 305
311 313 313 312 310 309 311 312 311 313 312 311 315 315 308 312 313 313 313 312 311 311 310 310 311 311 311 311 311 311 311 311 310 309 309 309 308 306 305 304 304 303 304 304
311 315 315 312 311 309 310 311 312 312 314 314 318 313 309 312 314 314 312 311 311 310 309 309 309 309 309 310 310 309 309 308 308 306 305 305 304 304 304 304 304 304 303 302
311 313 316 314 313 313 312 312 311 312 314 314 313 313 311 312 314 313 311 310 311 310 309 309 307 308 309 309 308 307 305 304 304 303 303 303 303 303 303 302 300 300 299 299
312 315 312 312 311 313 313 312 312 311 312 312 313 312 313 312 313 312 312 311 311 309 309 307 307 308 307 306 304 303 302 302 302 302 302 302 301 300 300 299 299 298 297 296
311 317 313 314 311 311 313 313 312 311 311 312 312 312 312 312 313 313 311 310 310 309 307 306 307 306 304 303 302 302 301 302 301 301 301 300 299 299 299 298 298 296 295 295
311 312 315 314 313 312 314 312 313 311 311 312 312 312 311 313 313 312 311 310 310 309 307 306 306 303 302 301 301 301 301 300 300 299 298 298 298 298 297 296 295 294 294 294
311 313 312 317 314 314 313 312 312 312 312 312 312 313 312 312 312 312 311 310 310 308 306 305 303 302 301 301 300 300 299 299 298 298 297 297 297 295 294 294 293 293 293 293
312 312 315 317 315 314 313 310 311 312 311 311 312 311 311 311 311 310 310 310 309 307 304 304 302 301 300 300 299 299 298 297 296 296 296 295 294 293 293 292 292 292 292 292
311 313 313 313 316 315 312 311 310 310 312 311 311 311 310 309 311 311 309 309 308 306 305 303 301 300 299 298 298 297 296 295 295 295 294 293 292 291 291 290 290 290 290 290
314 313 314 314 318 318 309 307 310 313 314 311 310 310 308 309 310 310 308 307 306 305 303 301 299 298 298 297 296 295 295 294 294 293 292 291 290 290 290 290 290 290 290 290
314 314 314 315 316 316 304 307 312 310 306 308 309 310 308 308 307 306 305 306 305 302 300 299 299 297 297 296 295 294 294 293 291 290 290 290 290 289 289 289 289 289 289 289
314 313 315 315 315 303 306 303 307 304 305 306 308 308 307 305 304 303 304 303 301 300 298 297 297 296 295 294 294 293 291 290 289 289 289 289 289 289 289 289 288 288 288 288
304 299 311 311 305 302 303 303 305 303 304 305 307 307 306 305 301 302 301 299 298 297 297 296 295 294 294 293 292 290 289 289 289 289 289 289 289 289 288 288 288 287 287 287
303 302 306 307 298 299 299 301 302 303 305 305 305 306 306 306 301 301 299 298 297 297 296 295 294 293 292 290 289 288 288 289 289 289 289 289 289 288 288 288 287 287 287 286
299 303 307 311 305 304 304 303 301 302 303 304 305 304 304 305 303 300 298 297 297 295 294 293 292 291 290 289 288 288 288 288 288 288 288 288 288 287 287 287 288 287 287 286
Wind_Speed
19 11 17 21 17 13 13 17 12 7 2 6 13 11 11 7 6 9 10 10 9 9 7 11 14 17 21 22 23 23 22 22 22 24 26 27 26 25 23 22 20 19 19 18
9 18 18 14 8 6 11 15 11 4 2 4 5 12 11 12 12 11 11 11 9 8 7 9 15 18 20 22 24 25 25 23 25 23 25 26 26 26 25 24 24 23 24 22
16 15 12 8 9 12 10 14 11 3 7 2 4 9 11 5 6 6 8 8 8 6 6 6 11 14 19 23 25 25 25 24 23 22 22 22 25 26 25 25 24 22 23 22
14 6 12 14 17 15 9 3 11 11 11 5 3 3 8 9 10 7 7 6 6 4 4 5 6 9 14 18 22 27 25 24 23 21 21 25 24 23 21 20 19 18 16 16
6 10 13 16 16 8 5 8 10 8 4 1 6 5 4 7 8 8 8 7 5 4 5 5 5 5 7 9 11 17 24 22 20 22 20 23 22 21 19 14 14 14 15 16
5 2 6 4 6 2 16 13 10 6 2 5 6 7 7 6 11 10 7 7 5 6 6 7 8 7 6 6 7 11 16 19 20 19 17 14 15 16 15 14 15 13 13 15
5 7 3 8 10 10 12 16 5 5 5 4 2 4 7 5 5 10 10 8 8 8 8 9 10 11 11 10 10 9 10 12 13 14 14 15 12 11 11 13 14 13 13 14
12 7 10 9 10 9 15 16 6 7 6 6 1 8 4 7 7 6 10 10 10 10 11 12 13 15 16 16 16 15 14 13 11 9 8 6 6 4 4 3 4 5 6 8
14 6 4 2 1 9 12 9 4 6 2 2 6 5 7 7 7 11 13 14 13 12 13 15 17 19 22 22 22 20 19 19 17 15 14 12 10 7 5 3 1 2 5 7
9 6 4 3 2 2 6 11 4 3 6 5 6 5 5 10 14 13 15 18 18 15 14 15 18 21 22 21 21 19 18 17 16 14 13 11 9 7 5 4 4 5 7 9
7 3 5 5 8 12 4 6 5 3 2 4 4 5 1 11 17 18 21 22 21 20 18 16 18 19 20 19 18 17 15 14 14 12 11 9 8 6 5 4 5 6 8 10
2 5 5 7 2 2 4 8 12 6 4 0 2 2 1 4 17 21 23 23 21 19 18 19 19 18 18 17 16 14 14 12 12 11 9 8 7 6 6 6 7 9 11 14
8 3 5 2 2 1 6 8 13 8 2 5 5 4 1 5 15 20 24 24 22 21 20 19 18 16 17 17 16 14 13 11 10 9 7 6 5 5 7 9 12 14 17 19
13 3 7 11 8 10 11 17 13 13 4 7 9 7 8 12 15 22 24 24 23 22 21 19 17 18 18 16 15 14 12 10 8 6 5 4 5 6 9 12 15 17 20 22
6 8 8 10 2 7 9 14 13 14 22 13 20 14 11 17 19 28 27 26 25 24 23 21 21 20 18 17 15 13 11 8 6 4 3 5 7 9 12 14 17 20 22 24
3 2 5 3 5 1 4 12 19 20 22 20 16 11 4 22 21 24 25 26 27 25 23 23 22 21 19 17 15 12 9 6 4 2 4 6 9 13 16 20 23 25 26 26
10 5 3 8 6 4 4 16 19 19 21 21 21 21 6 13 22 30 32 32 30 28 26 26 25 22 20 17 14 11 7 4 1 4 8 11 14 18 22 24 26 27 28 30
12 7 3 3 6 7 12 8 18 21 16 20 20 13 17 21 34 35 33 35 31 32 30 29 27 24 21 17 13 9 5 1 3 7 11 15 19 23 24 26 27 30 32 34
12 10 4 5 8 7 7 6 9 12 21 17 22 18 14 18 17 18 26 29 32 34 31 30 26 23 20 16 12 7 4 3 6 10 15 20 23 24 26 28 30 32 35 37
4 10 8 4 8 11 20 8 13 6 13 18 22 15 13 22 12 9 32 34 35 34 34 32 27 23 19 14 9 6 4 7 10 15 19 22 23 25 27 30 32 34 36 39
4 2 14 13 5 8 4 8 19 11 11 13 31 31 31 16 23 21 37 34 36 36 32 28 25 22 17 12 7 5 7 11 15 18 19 20 22 25 27 30 32 35 38 40
15 11 7 5 7 18 10 7 14 3 3 9 19 21 28 22 17 27 38 39 37 36 32 27 24 19 14 10 8 9 12 15 16 17 19 20 22 25 29 33 35 37 39 42
6 5 8 11 8 2 21 2 13 4 6 9 15 19 27 23 27 32 38 39 36 34 31 26 20 15 12 10 10 13 14 14 16 17 19 22 25 28 32 36 38 41 41 43
3 1 1 2 1 2 14 7 14 5 7 10 16 22 29 30 33 36 38 37 34 30 26 21 17 13 11 11 12 13 14 15 16 19 22 26 31 34 37 39 41 43 44 45
1 4 3 5 2 2 9 11 11 11 10 12 19 24 28 29 33 37 36 33 30 26 22 18 15 13 11 10 11 12 13 15 19 23 27 31 35 39 41 42 43 45 46 44
7 5 4 3 7 2 1 17 13 13 14 18 21 25 25 28 34 34 33 30 27 24 20 17 14 12 11 9 10 12 15 18 23 27 31 35 38 40 42 46 48 46 47 46
Wind_Direction
189 187 200 191 204 218 187 206 201 189 128 205 224 245 246 222 214 220 225 223 212 220 210 212 217 222 224 223 221 219 218 225 229 232 235 240 246 250 254 258 262 264 265 263
174 211 194 189 156 177 176 199 195 119 117 220 210 256 246 235 230 233 234 234 232 220 230 233 235 231 230 229 229 225 223 222 225 236 240 243 250 256 260 266 267 266 267 269
192 196 137 140 165 175 189 199 178 206 149 221 291 260 225 186 222 219 225 234 243 219 211 231 238 233 230 228 226 227 224 222 223 222 245 243 245 254 257 259 263 268 269 269
209 143 172 180 189 188 183 205 143 143 173 209 212 248 182 177 185 193 196 181 190 175 172 207 209 219 227 231 232 229 221 219 220 221 221 242 248 253 261 267 271 274 273 272
149 155 180 187 188 206 116 152 141 149 163 221 190 244 171 159 198 180 173 153 162 144 142 149 173 190 209 222 231 224 217 216 218 220 221 242 243 246 251 255 274 276 280 280
99 22 198 139 92 177 137 124 108 107 146 239 207 236 235 184 205 161 156 148 143 127 125 126 126 125 131 149 174 189 201 207 214 218 217 227 241 242 247 247 254 264 267 276
134 150 114 157 102 142 163 168 154 187 200 236 68 219 239 126 148 158 159 152 137 129 119 117 120 120 114 114 118 138 167 186 194 198 204 214 221 228 239 245 254 263 272 277
178 189 177 174 190 175 194 189 172 186 193 188 122 224 221 112 127 153 144 144 137 134 131 123 122 119 116 112 110 113 120 127 133 143 152 160 169 181 208 238 265 278 291 294
189 142 108 162 123 174 176 206 61 105 57 193 193 233 190 160 164 164 149 147 145 141 135 129 124 120 118 116 113 110 111 112 112 113 113 114 115 118 119 108 34 329 319 312
198 129 187 114 149 70 210 147 152 223 153 219 189 246 224 196 183 169 162 159 151 145 139 135 134 129 124 120 117 117 116 115 113 112 111 107 101 96 86 59 25 357 342 335
172 122 141 150 210 172 152 183 218 223 230 208 172 235 107 193 183 173 170 164 158 154 152 147 144 137 132 129 125 122 121 119 117 114 109 106 96 79 57 31 11 353 343 339
141 103 140 177 55 350 278 216 194 205 179 339 26 259 358 234 173 171 162 162 160 158 155 154 150 145 140 137 133 131 125 126 119 111 103 92 78 58 34 17 3 354 343 336
176 140 103 79 235 179 220 198 221 213 47 198 173 213 6 179 160 166 161 163 162 161 160 159 152 148 147 143 139 135 130 125 118 110 100 85 59 30 5 352 344 337 333 330
158 131 187 197 201 146 197 201 198 199 193 204 229 194 178 183 174 170 173 171 168 166 167 161 159 158 157 152 146 141 137 130 122 110 89 56 20 1 350 343 337 333 329 326
178 201 204 228 86 181 194 195 192 207 224 209 239 228 210 193 186 186 176 174 172 172 169 170 168 165 162 156 150 146 143 137 126 100 49 11 353 346 339 332 327 324 320 317
193 205 219 259 116 190 211 215 199 211 228 235 246 250 302 187 190 179 180 179 181 180 177 175 172 169 164 160 157 154 149 139 122 53 355 347 338 333 330 326 323 321 320 319
168 132 108 233 115 106 289 221 200 214 225 219 233 232 130 174 187 190 189 190 187 181 177 178 175 170 167 165 163 160 155 144 74 344 337 334 331 328 325 323 322 321 320 319
176 151 128 137 126 220 245 222 207 214 223 222 241 242 194 193 198 199 197 190 183 181 181 178 175 172 171 168 166 166 166 195 319 327 328 325 323 322 321 320 321 320 319 319
201 175 171 171 205 303 258 205 188 191 238 222 224 226 195 190 185 206 200 191 185 182 178 177 173 173 171 172 173 181 209 285 312 319 322 321 320 319 320 320 321 321 319 318
231 235 206 152 214 224 244 167 172 138 265 225 220 214 164 149 190 203 190 184 185 184 181 177 174 173 172 172 182 206 255 295 307 315 317 318 318 320 321 321 321 320 319 318
172 175 206 214 233 275 138 141 149 166 245 173 194 205 173 187 212 191 187 178 183 181 173 171 171 173 175 183 206 247 278 293 307 313 316 317 318 319 321 320 321 320 318 316
184 178 194 217 219 251 122 121 181 219 208 199 199 202 188 189 174 167 176 175 173 167 167 172 175 177 183 202 228 259 278 295 304 310 314 317 320 321 320 319 319 317 315 314
196 201 185 198 220 114 177 98 207 226 215 191 189 174 178 165 159 166 167 164 165 166 168 173 178 184 198 220 249 272 288 300 308 313 317 318 318 318 316 314 314 312 310 309
240 91 187 131 183 157 201 229 203 218 225 196 184 179 174 159 158 160 161 161 163 165 169 175 183 197 218 244 266 281 294 304 312 315 316 315 315 315 313 311 310 309 307 307
67 139 163 279 214 294 245 216 189 177 169 170 165 173 172 168 166 168 165 164 166 171 177 185 198 213 232 252 268 281 295 305 308 312 314 314 314 313 312 310 308 306 304 305
187 163 187 232 190 91 17 204 181 166 170 169 165 165 173 178 172 169 166 171 177 180 186 193 206 225 239 251 271 289 299 304 309 313 313 312 311 311 311 311 311 308 306 305